Location: Woodstock
(35.2731°N, 89.9823°W)
Time: 16:20:34
(UTC+00:00)

Vanguard 3 - Pass Details

Date: 22 May 2025
Orbit: 508 x 3215 km, 33.3° (Epoch: 14 June)

Event Time Altitude Azimuth Distance (km) Brightness Sun altitude
Rises 12:57:00 0° 275° (W) 3,135 9.6 23.7°
Reaches altitude 10° 12:59:45 10° 269° (W) 1,983 8.7 24.2°
Maximum altitude 13:03:49 46° 196° (SSW) 706 7.0 25.0°
Drops below altitude 10° 13:07:20 10° 121° (ESE) 1,711 9.8 25.7°
Sets 13:09:32 0° 114° (ESE) 2,646 10.7 26.2°
